New Ulm, MN

1:46 AM CST on December 16, 2019 (GMT -0600)
New Ulm Municipal

Weather History for KULM - October, 2019

Change the Weather History Date:

Wednesday, October 9, 2019

  Actual Average Record
Temperature  
Mean Temperature 61 °F -  
Max Temperature 71 °F 62 °F 86 °F (2010)
Min Temperature 51 °F 39 °F 21 °F (1964)
Degree Days  
Heating Degree Days 4    
Growing Degree Days 11 (Base 50)    
Moisture  
Dew Point 45 °F    
Average Humidity 59    
Maximum Humidity 76    
Minimum Humidity 40    
Precipitation  
Precipitation 0.00 in - - ()
Sea Level Pressure  
Sea Level Pressure 29.86 in    
Wind  
Wind Speed 12 mph ()    
Max Wind Speed 26 mph    
Max Gust Speed 31 mph    
Visibility 10.0 miles    
Events      
Averages and records for this station are not official NWS values.
T = Trace of Precipitation, MM = Missing Value Source: Averaged Metar Reports

Daily Weather History Graph

Daily Weather History Graph

Search for Another Location

Airport or City:

Astronomy

Oct. 09, 2019 Rise Set
Actual Time 7:25 AM CDT 6:44 PM CDT
Civil Twilight 6:56 AM CDT 7:13 PM CDT
Nautical Twilight 6:22 AM CDT 7:47 PM CDT
Astronomical Twilight 5:48 AM CDT 8:20 PM CDT
Moon 5:28 PM CDT (10/9) 2:59 AM CDT (10/9)
Length of Visible Light 12h 17m
Length of Day
11h 19m
Waxing Gibbous, 85% of the Moon is Illuminated
Oct 9
Waxing Gibbous
Oct 13
Full
Oct 21
Last Quarter
Oct 27
New
Nov 4
First Quarter

Hourly Weather History & Observations

Time (CDT) Temp. Dew Point Humidity Pressure Visibility Wind Dir Wind Speed Gust Speed Precip Events Conditions
12:15 AM 55.4 °F 44.6 °F 67% 29.89 in 10.0 mi SSE 9.2 mph - N/A   Clear
12:16 AM 55.4 °F 44.6 °F 67% 29.89 in 10.0 mi SSE 9.2 mph - N/A   Clear
12:35 AM 53.6 °F 44.6 °F 72% 29.88 in 10.0 mi SSE 9.2 mph - N/A   Clear
12:55 AM 53.6 °F 44.6 °F 72% 29.88 in 10.0 mi SSE 10.4 mph - N/A   Clear
12:56 AM 53.6 °F 44.6 °F 72% 29.88 in 10.0 mi SSE 10.4 mph - N/A   Clear
1:15 AM 53.6 °F 44.6 °F 72% 29.88 in 10.0 mi SSE 10.4 mph - N/A   Clear
1:35 AM 53.6 °F 44.6 °F 72% 29.88 in 10.0 mi SSE 11.5 mph - N/A   Clear
1:36 AM 53.6 °F 44.6 °F 72% 29.88 in 10.0 mi SSE 10.4 mph - N/A   Clear
1:55 AM 53.6 °F 44.6 °F 72% 29.88 in 10.0 mi SSE 9.2 mph 16.1 mph N/A   Clear
2:15 AM 53.6 °F 44.6 °F 72% 29.88 in 10.0 mi SSE 13.8 mph - N/A   Clear
2:16 AM 53.6 °F 44.6 °F 72% 29.88 in 10.0 mi SSE 11.5 mph - N/A   Clear
2:35 AM 53.6 °F 44.6 °F 72% 29.87 in 10.0 mi SSE 12.7 mph 17.3 mph N/A   Clear
2:55 AM 53.6 °F 44.6 °F 72% 29.87 in 10.0 mi SSE 15.0 mph 19.6 mph N/A   Clear
3:15 AM 53.6 °F 44.6 °F 72% 29.87 in 10.0 mi SSE 13.8 mph 18.4 mph N/A   Clear
3:35 AM 53.6 °F 44.6 °F 72% 29.86 in 10.0 mi SSE 11.5 mph - N/A   Clear
3:55 AM 51.8 °F 44.6 °F 76% 29.86 in 10.0 mi SSE 9.2 mph - N/A   Clear
4:15 AM 51.8 °F 44.6 °F 76% 29.86 in 10.0 mi SSE 9.2 mph - N/A   Clear
4:35 AM 51.8 °F 44.6 °F 76% 29.86 in 10.0 mi SSE 9.2 mph - N/A   Clear
4:55 AM 51.8 °F 44.6 °F 76% 29.86 in 10.0 mi SSE 9.2 mph - N/A   Clear
5:15 AM 51.8 °F 44.6 °F 76% 29.86 in 10.0 mi SSE 10.4 mph - N/A   Clear
5:35 AM 51.8 °F 44.6 °F 76% 29.85 in 10.0 mi SSE 13.8 mph - N/A   Clear
5:36 AM 51.8 °F 44.6 °F 76% 29.85 in 10.0 mi SSE 12.7 mph - N/A   Clear
5:55 AM 51.8 °F 44.6 °F 76% 29.86 in 10.0 mi SSE 12.7 mph 17.3 mph N/A   Clear
6:15 AM 51.8 °F 44.6 °F 76% 29.86 in 10.0 mi SSE 11.5 mph - N/A   Clear
6:35 AM 51.8 °F 44.6 °F 76% 29.86 in 10.0 mi SSE 12.7 mph 17.3 mph N/A   Clear
6:55 AM 51.8 °F 44.6 °F 76% 29.85 in 10.0 mi SSE 12.7 mph 19.6 mph N/A   Clear
7:15 AM 51.8 °F 44.6 °F 76% 29.85 in 10.0 mi SSE 12.7 mph - N/A   Clear
7:35 AM 51.8 °F 44.6 °F 76% 29.85 in 10.0 mi SSE 15.0 mph 19.6 mph N/A   Clear
7:36 AM 51.8 °F 44.6 °F 76% 29.84 in 10.0 mi SSE 15.0 mph 19.6 mph N/A   Clear
7:55 AM 51.8 °F 44.6 °F 76% 29.85 in 10.0 mi SSE 13.8 mph 18.4 mph N/A   Clear
8:15 AM 53.6 °F 44.6 °F 72% 29.85 in 10.0 mi SSE 15.0 mph 21.9 mph N/A   Clear
8:16 AM 53.6 °F 44.6 °F 72% 29.85 in 10.0 mi SSE 16.1 mph 21.9 mph N/A   Clear
8:35 AM 53.6 °F 44.6 °F 72% 29.85 in 10.0 mi SSE 15.0 mph 19.6 mph N/A   Clear
8:55 AM 55.4 °F 44.6 °F 67% - 10.0 mi SSE 12.7 mph 21.9 mph N/A   Clear
9:15 AM 57.2 °F 44.6 °F 63% 29.86 in 10.0 mi SSE 16.1 mph 20.7 mph N/A   Clear
9:35 AM 57.2 °F 44.6 °F 63% 29.86 in 10.0 mi South 19.6 mph 24.2 mph N/A   Clear
9:55 AM 59.0 °F 44.6 °F 59% 29.86 in 10.0 mi South 17.3 mph 25.3 mph N/A   Clear
10:15 AM 60.8 °F 46.4 °F 59% 29.86 in 10.0 mi South 19.6 mph 25.3 mph N/A   Clear
10:35 AM 62.6 °F 46.4 °F 55% 29.87 in 10.0 mi SSE 16.1 mph 24.2 mph N/A   Clear
10:55 AM 64.4 °F 46.4 °F 52% 29.86 in 10.0 mi South 16.1 mph 24.2 mph N/A   Clear
10:56 AM 64.4 °F 46.4 °F 52% 29.86 in 10.0 mi South 18.4 mph 25.3 mph N/A   Clear
11:15 AM 64.4 °F 46.4 °F 52% 29.86 in 10.0 mi South 17.3 mph 26.5 mph N/A   Clear
11:35 AM 66.2 °F 46.4 °F 49% 29.85 in 10.0 mi South 17.3 mph 28.8 mph N/A   Clear
11:55 AM 68.0 °F 46.4 °F 46% 29.84 in 10.0 mi South 21.9 mph 28.8 mph N/A   Clear
12:15 PM 68.0 °F 46.4 °F 46% 29.85 in 10.0 mi SSE 19.6 mph 26.5 mph N/A   Clear
12:35 PM 69.8 °F 46.4 °F 43% 29.84 in 10.0 mi SSE 23.0 mph 28.8 mph N/A   Clear
12:55 PM 69.8 °F 46.4 °F 43% 29.84 in 10.0 mi SSE 19.6 mph 28.8 mph N/A   Clear
1:15 PM 69.8 °F 46.4 °F 43% 29.83 in 10.0 mi SSE 20.7 mph 27.6 mph N/A   Clear
1:35 PM 71.6 °F 46.4 °F 41% 29.82 in 10.0 mi South 26.5 mph 29.9 mph N/A   Clear
1:36 PM 71.6 °F 46.4 °F 41% 29.82 in 10.0 mi South 24.2 mph 29.9 mph N/A   Clear
1:55 PM 71.6 °F 46.4 °F 41% 29.82 in 10.0 mi SSE 17.3 mph 27.6 mph N/A   Clear
2:15 PM 71.6 °F 46.4 °F 41% 29.82 in 10.0 mi SSE 24.2 mph 29.9 mph N/A   Clear
2:16 PM 71.6 °F 46.4 °F 41% 29.82 in 10.0 mi SSE 21.9 mph 29.9 mph N/A   Clear
2:35 PM 71.6 °F 46.4 °F 41% 29.81 in 10.0 mi SSE 17.3 mph 29.9 mph N/A   Clear
2:55 PM 69.8 °F 44.6 °F 40% 29.82 in 10.0 mi South 19.6 mph 26.5 mph N/A   Mostly Cloudy
3:15 PM 69.8 °F 46.4 °F 43% 29.81 in 10.0 mi South 19.6 mph 24.2 mph N/A   Mostly Cloudy
3:35 PM 69.8 °F 46.4 °F 43% 29.81 in 10.0 mi South 17.3 mph 27.6 mph N/A   Mostly Cloudy
3:36 PM 69.8 °F 46.4 °F 43% 29.81 in 10.0 mi SSE 16.1 mph 27.6 mph N/A   Mostly Cloudy
3:55 PM 69.8 °F 46.4 °F 43% 29.81 in 10.0 mi SSE 12.7 mph 20.7 mph N/A   Mostly Cloudy
3:56 PM 69.8 °F 46.4 °F 43% 29.81 in 10.0 mi SSE 15.0 mph 20.7 mph N/A   Mostly Cloudy
4:15 PM 69.8 °F 46.4 °F 43% 29.82 in 10.0 mi South 18.4 mph 27.6 mph N/A   Mostly Cloudy
4:35 PM 69.8 °F 46.4 °F 43% 29.82 in 10.0 mi South 21.9 mph 26.5 mph N/A   Mostly Cloudy
4:36 PM 69.8 °F 46.4 °F 43% 29.82 in 10.0 mi South 20.7 mph 26.5 mph N/A   Mostly Cloudy
4:55 PM 68.0 °F 46.4 °F 46% 29.82 in 10.0 mi SSE 15.0 mph 26.5 mph N/A   Mostly Cloudy
4:56 PM 68.0 °F 46.4 °F 46% 29.82 in 10.0 mi SSE 15.0 mph 26.5 mph N/A   Mostly Cloudy
5:15 PM 69.8 °F 46.4 °F 43% 29.82 in 10.0 mi SSE 17.3 mph 21.9 mph N/A   Mostly Cloudy
5:16 PM 69.8 °F 46.4 °F 43% 29.82 in 10.0 mi SSE 17.3 mph 21.9 mph N/A   Mostly Cloudy
5:35 PM 68.0 °F 46.4 °F 46% 29.83 in 10.0 mi SSE 18.4 mph 24.2 mph N/A   Scattered Clouds
5:36 PM 68.0 °F 46.4 °F 46% 29.83 in 10.0 mi SSE 19.6 mph 25.3 mph N/A   Scattered Clouds
5:55 PM 66.2 °F 46.4 °F 49% 29.84 in 10.0 mi South 15.0 mph 26.5 mph N/A   Scattered Clouds
5:56 PM 66.2 °F 46.4 °F 49% 29.84 in 10.0 mi South 15.0 mph 26.5 mph N/A   Scattered Clouds
6:15 PM 66.2 °F 46.4 °F 49% 29.85 in 10.0 mi SSE 15.0 mph 19.6 mph N/A   Clear
6:16 PM 66.2 °F 46.4 °F 49% 29.85 in 10.0 mi SSE 13.8 mph 19.6 mph N/A   Clear
6:35 PM 66.2 °F 46.4 °F 49% 29.85 in 10.0 mi SSE 13.8 mph 20.7 mph N/A   Clear
6:36 PM 66.2 °F 46.4 °F 49% 29.85 in 10.0 mi SSE 13.8 mph 20.7 mph N/A   Clear
6:55 PM 64.4 °F 46.4 °F 52% 29.86 in 10.0 mi SSE 12.7 mph 23.0 mph N/A   Clear
7:15 PM 64.4 °F 46.4 °F 52% 29.87 in 10.0 mi SSE 13.8 mph - N/A   Clear
7:35 PM 62.6 °F 46.4 °F 55% 29.88 in 10.0 mi South 13.8 mph 17.3 mph N/A   Clear
7:36 PM 62.6 °F 46.4 °F 55% 29.88 in 10.0 mi South 15.0 mph - N/A   Clear
7:55 PM 60.8 °F 46.4 °F 59% 29.88 in 10.0 mi SSE 10.4 mph - N/A   Clear
7:56 PM 60.8 °F 46.4 °F 59% 29.88 in 10.0 mi SSE 9.2 mph - N/A   Clear
8:15 PM 60.8 °F 44.6 °F 55% 29.88 in 10.0 mi SSE 6.9 mph - N/A   Clear
8:35 PM 60.8 °F 44.6 °F 55% 29.88 in 10.0 mi SSE 6.9 mph - N/A   Clear
8:36 PM 60.8 °F 44.6 °F 55% 29.88 in 10.0 mi SSE 5.8 mph - N/A   Clear
8:55 PM 57.2 °F 44.6 °F 63% 29.88 in 10.0 mi SE 6.9 mph - N/A   Clear
9:15 PM 59.0 °F 44.6 °F 59% 29.88 in 10.0 mi SE 6.9 mph - N/A   Clear
9:16 PM 59.0 °F 44.6 °F 59% 29.88 in 10.0 mi SE 6.9 mph - N/A   Clear
9:35 PM 59.0 °F 44.6 °F 59% 29.89 in 10.0 mi SE 9.2 mph 16.1 mph N/A   Clear
9:55 PM 57.2 °F 44.6 °F 63% 29.89 in 10.0 mi SSE 8.1 mph - N/A   Clear
9:56 PM 57.2 °F 44.6 °F 63% 29.89 in 10.0 mi SSE 8.1 mph - N/A   Clear
10:15 PM 57.2 °F 44.6 °F 63% 29.90 in 10.0 mi SSE 9.2 mph - N/A   Clear
10:35 PM 57.2 °F 44.6 °F 63% 29.90 in 10.0 mi SSE 9.2 mph - N/A   Clear
10:36 PM 57.2 °F 44.6 °F 63% 29.90 in 10.0 mi SE 9.2 mph - N/A   Clear
10:55 PM 57.2 °F 44.6 °F 63% 29.91 in 10.0 mi SSE 8.1 mph - N/A   Mostly Cloudy
11:15 PM 59.0 °F 44.6 °F 59% 29.91 in 10.0 mi SSE 9.2 mph - N/A   Overcast
11:16 PM 59.0 °F 44.6 °F 59% 29.91 in 10.0 mi SSE 10.4 mph - N/A   Overcast
11:35 PM 59.0 °F 44.6 °F 59% 29.92 in 10.0 mi SSE 12.7 mph - N/A   Overcast
11:55 PM 59.0 °F 46.4 °F 63% 29.93 in 10.0 mi South 20.7 mph 31.1 mph N/A   Overcast
11:56 PM 59.0 °F 46.4 °F 63% 29.93 in 10.0 mi South 20.7 mph 31.1 mph N/A   Overcast